QZS-6 (MICHIBIKI-6)

Last updated on Thu Jul 03 2025 00:02:49 GMT+0000 (Coordinated Universal Time)

1 62876U 25023A 25183.59129988 -.00000226 00000+0 00000+0 0 9990 2 62876 0.0452 24.8826 0001802 73.8988 125.4477 1.00272894 1459
UTC large
Height (km)
Speed (km/s)
/
Latitude / Longitude
Inclination (degrees)
Orbital Period (minutes)
Azimuth
Elevation
Range (km)
Doppler Factor

Next 0 passes for location: London (51.5072 / 0.1276)

Sorry there are no passes over London.